{"data":{"norad_id":58308,"intl_designator":"2023-174BE","name":"FLOCK 4Q-33","alt_names":[],"object_type":"PAYLOAD","status":"ACTIVE","operator":null,"country":"US","launch_date":"2023-11-11","launch_site_code":"AFWTR","launch_vehicle":null,"mission":null,"orbit_class":"UNKNOWN","rcs_meters":null,"size_class":null,"mass_kg":null,"dimensions":null,"purposes":["earth_obs"],"wikipedia_slug":null,"has_3d_model":false,"image_url":null,"decayed_at":null,"tle_current":{"epoch":"2026-05-25T05:30:35.666208Z","epoch_age_seconds":55315,"freshness":"FRESH","line1":"1 58308U 23174BE  26145.22957947  .00033889  00000+0  48614-3 0  9990","line2":"2 58308  97.3854 236.4701 0005966 195.9073 164.1995 15.56054968142264","mean_motion":15.56054968,"eccentricity":0.0005966,"inclination_deg":97.3854,"raan_deg":236.4701,"arg_perigee_deg":195.9073,"mean_anomaly_deg":164.1995,"bstar":0.00048614,"rev_number":14226,"period_min":92.541717973552,"perigee_km":395.0444080723,"apogee_km":403.13099258473,"semimajor_km":6777.2247003285,"source":"CELESTRAK","updated_at":"2026-05-25T13:38:13.300355Z"}}}